Ketchikan, AK

11:26 PM AKDT on September 22, 2018 (GMT -0800)
Ketchikan International

Weather History for PAKT - October, 2017

Change the Weather History Date:

Friday, October 27, 2017

  Actual Average Record
Temperature  
Mean Temperature 48 °F -  
Max Temperature 51 °F 48 °F 59 °F (1965)
Min Temperature 46 °F 37 °F 21 °F (1991)
Degree Days  
Heating Degree Days 16    
Moisture  
Dew Point 44 °F    
Average Humidity 85    
Maximum Humidity 97    
Minimum Humidity 76    
Precipitation  
Precipitation 0.00 in - - ()
Sea Level Pressure  
Sea Level Pressure 30.27 in    
Wind  
Wind Speed 8 mph (SSE)    
Max Wind Speed 12 mph    
Max Gust Speed -    
Visibility 10 miles    
Events      
Averages and records for this station are not official NWS values.
T = Trace of Precipitation, MM = Missing Value Source: NWS Daily Summary

Daily Weather History Graph

Daily Weather History Graph

Search for Another Location

Airport or City:

Astronomy

Oct. 27, 2017 Rise Set
Actual Time 7:42 AM AKDT 5:18 PM AKDT
Civil Twilight 7:03 AM AKDT 5:56 PM AKDT
Nautical Twilight 6:21 AM AKDT 6:39 PM AKDT
Astronomical Twilight 5:38 AM AKDT 7:21 PM AKDT
Moon 2:39 PM AKDT (10/27) 11:19 PM AKDT (10/27)
Length of Visible Light 10h 52m
Length of Day
9h 35m
Waxing Crescent, 49% of the Moon is Illuminated
Oct 27
Waxing Crescent
Oct 27
First Quarter
Nov 3
Full
Nov 10
Last Quarter
Nov 18
New

Hourly Weather History & Observations

Time (AKDT) Temp. Windchill Dew Point Humidity Pressure Visibility Wind Dir Wind Speed Gust Speed Precip Events Conditions
12:53 AM 46.9 °F - 39.9 °F 77% 30.33 in 10.0 mi South 10.4 mph - N/A   Overcast
1:53 AM 46.9 °F - 39.9 °F 77% 30.33 in 10.0 mi South 8.1 mph - N/A   Overcast
2:53 AM 48.0 °F - 41.0 °F 77% 30.33 in 10.0 mi SSE 6.9 mph - N/A   Overcast
3:01 AM 48.0 °F - 41.0 °F 77% 30.32 in 10.0 mi South 6.9 mph - N/A   Overcast
3:29 AM 48.0 °F - 41.0 °F 77% 30.32 in 10.0 mi South 8.1 mph - N/A   Overcast
3:53 AM 46.9 °F - 42.1 °F 83% 30.32 in 10.0 mi South 6.9 mph - N/A   Overcast
4:08 AM 46.9 °F - 42.1 °F 83% 30.31 in 10.0 mi South 6.9 mph - N/A   Overcast
4:51 AM 48.2 °F - 42.8 °F 82% 30.31 in 10.0 mi South 6.9 mph - N/A   Overcast
4:53 AM 48.0 °F - 42.1 °F 80% 30.31 in 10.0 mi South 6.9 mph - N/A   Overcast
5:53 AM 48.0 °F - 43.0 °F 83% 30.30 in 10.0 mi Variable 3.5 mph - N/A   Overcast
6:53 AM 46.0 °F 41.9 °F 42.1 °F 86% 30.28 in 10.0 mi SE 8.1 mph - N/A   Overcast
7:53 AM 46.9 °F - 42.1 °F 83% 30.27 in 10.0 mi SE 10.4 mph - N/A   Overcast
8:53 AM 46.9 °F - 43.0 °F 86% 30.28 in 10.0 mi SE 8.1 mph - N/A   Overcast
9:53 AM 48.0 °F - 43.0 °F 83% 30.30 in 10.0 mi ESE 9.2 mph - N/A   Overcast
10:53 AM 48.9 °F - 44.1 °F 83% 30.29 in 10.0 mi ESE 9.2 mph - N/A   Overcast
11:53 AM 50.0 °F - 45.0 °F 83% 30.29 in 10.0 mi ESE 11.5 mph - N/A   Overcast
12:53 PM 50.0 °F - 45.0 °F 83% 30.28 in 10.0 mi SE 8.1 mph - N/A   Overcast
1:53 PM 51.8 °F - 44.6 °F 76% 30.27 in 10.0 mi SE 9.2 mph - N/A   Overcast
2:53 PM 51.1 °F - 44.1 °F 77% 30.26 in 10.0 mi SE 8.1 mph - N/A   Overcast
3:53 PM 50.0 °F - 44.6 °F 82% 30.25 in 10.0 mi SE 9.2 mph - N/A   Overcast
4:53 PM 50.0 °F - 44.1 °F 80% 30.24 in 10.0 mi SE 6.9 mph - N/A   Overcast
5:53 PM 48.9 °F - 45.0 °F 86% 30.22 in 10.0 mi SE 5.8 mph - N/A   Overcast
6:53 PM 48.9 °F - 45.0 °F 86% 30.22 in 10.0 mi SE 6.9 mph - N/A   Overcast
7:53 PM 48.9 °F - 45.0 °F 86% 30.21 in 10.0 mi Calm Calm - N/A   Overcast
8:53 PM 48.9 °F - 46.9 °F 93% 30.21 in 10.0 mi NNW 5.8 mph - N/A   Overcast
9:53 PM 48.0 °F - 46.0 °F 93% 30.20 in 10.0 mi Calm Calm - N/A   Overcast
10:00 PM 48.0 °F - 46.0 °F 93% 30.20 in 10.0 mi Calm Calm - N/A   Mostly Cloudy
10:53 PM 46.9 °F - 46.0 °F 97% 30.21 in 10.0 mi NW 8.1 mph - N/A   Clear
11:14 PM 48.0 °F - 46.9 °F 96% 30.21 in 10.0 mi NW 5.8 mph - N/A   Mostly Cloudy
11:40 PM 48.0 °F - 46.9 °F 96% 30.20 in 10.0 mi WNW 5.8 mph - N/A   Mostly Cloudy
11:53 PM 48.0 °F - 46.9 °F 96% 30.21 in 10.0 mi NW 5.8 mph - N/A   Scattered Clouds